Regional Weather Roundup
Issued by NWS Cleveland, OH

Home | Current Version | Previous Version | Text Only | Print | Product List | Glossary Off
Versions: 1 2 3 4 5 6 7 8 9 10 11 12 13 14 15 16 17 18 19 20 21 22 23 24 25 26 27 28 29 30 31 32 33 34 35 36 37 38 39 40 41 42 43 44 45 46 47 48 49 50

000
ASUS41 KCLE 231000
RWRCLE
OHIO REGIONAL WEATHER ROUNDUP
NATIONAL WEATHER SERVICE WILMINGTON, OH
600 AM EDT WED JUL 23 2014

NOTE: "FAIR" INDICATES FEW OR NO CLOUDS BELOW 12,000 FEET WITH NO
SIGNIFICANT WEATHER AND/OR OBSTRUCTIONS TO VISIBILITY.

OHZ001>008-015>018-024>027-034-035-043-044-231100-
   NORTHWEST OHIO

CITY           SKY/WX    TMP DP  RH WIND       PRES   REMARKS
DEFIANCE       LGT RAIN  73  67  81 N8        30.02R
FINDLAY        LGT RAIN  72  70  93 S10       29.98S FOG
TOLEDO EXPRESS LGT RAIN  72  70  93 SW8       29.98R
TOLEDO METCALF LGT RAIN  72  69  90 W8        29.98R
LIMA           LGT RAIN  72  69  90 S9        30.00S FOG
$$

OHZ009>014-019>023-028>033-038-089-231100-
   NORTHEAST OHIO

CITY           SKY/WX    TMP DP  RH WIND       PRES   REMARKS
CLE-HOPKINS    TSTM      74  68  81 W10       29.98F
CLE-LAKEFRONT  LGT RAIN  76  69  79 SW9       29.93F
CUY CO. ARPT   NOT AVBL
LORAIN-ELYRIA  LGT RAIN  73  68  84 W3        29.96F
ASHTABULA      CLOUDY    74  67  78 SW6       29.97R
AKRON-CANTON   CLOUDY    74  67  78 SW6       30.01S
WOOSTER        NOT AVBL
MANSFIELD      CLOUDY    71  68  90 W3        30.02F
YOUNGSTOWN     CLOUDY    73  69  87 SW7       30.00R
$$

OHZ042-051>053-060>062-070>072-077>081-231100-
  SOUTHWEST OHIO

CITY           SKY/WX    TMP DP  RH WIND       PRES   REMARKS
CINC-COVINGTON CLOUDY    74  68  81 VRB3      30.05R
CINC-LUNKEN    CLOUDY    68  68 100 CALM      30.04S FOG
HAMILTON       MOCLDY    71  70  96 CALM      30.05R
DAYTON         HVY RAIN  73  68  83 N14       30.08R
WRIGHT-PAT AFB NOT AVBL
DAYTON GENERAL MOCLDY    72  69  90 SW3       30.05R
WILMINGTON     CLOUDY    70  66  87 CALM      30.05R
$$

OHZ036-037-039>041-045>050-054>059-063>069-073>076-082>088-231100-
  CENTRAL AND SOUTHEAST OHIO

CITY           SKY/WX    TMP DP  RH WIND       PRES   REMARKS
COLUMBUS       MOCLDY    76  67  73 W6        30.03R
OSU AIRPORT    CLOUDY    73  68  84 W6        30.04R
BOLTON FIELD   NOT AVBL
RICKENBACK AFB NOT AVBL
NEWARK         MOCLDY    69  67  93 CALM      30.03R FOG
MARION         LGT RAIN  68  66  93 S3        30.02F
LANCASTER      PTCLDY    68  66  93 CALM      30.04R
ZANESVILLE     CLEAR     72  69  90 CALM      30.03R
NEW PHILLY     PTCLDY    70  69  97 CALM      30.02R FOG
$$


USA.gov is the U.S. government's official web portal to all federal, state and local government web resources and services.